Tracking 30995 objects as of 5-Jul-2025
HD Live streaming from Space Station
objects crossing your sky now

STARLINK-30364

Track STARLINK-30364 now!
10-day predictions
STARLINK-30364 is classified as:


NORAD ID: 57741
Int'l Code: 2023-131K
Perigee: 565.8 km
Apogee: 566.7 km
Inclination: 43.0 °
Period: 95.8 minutes
Semi major axis: 6937 km
RCS: Unknown
Launch date: September 1, 2023
Source: United States (US)
Launch site: AIR FORCE EASTERN TEST RANGE (AFETR)
Your satellite tracking list
STARLINK-6278
Track 1 satellite(s)




NASA's NSSDC Master Catalog

Two Line Element Set (TLE):
1 57741U 23131K   25186.05544368 -.00000623  00000-0 -31091-4 0  9992
2 57741  43.0035  77.3580 0000611 257.8212 102.2561 15.02531142102673
Source of the keplerian elements: AFSPC